Regional Weather Roundup
Issued by NWS

Home | Current Version | Previous Version | Graphics & Text | Print | Product List | Glossary On
Versions: 1 2 3 4 5 6 7 8 9 10 11 12 13 14 15 16 17 18 19 20 21 22 23 24 25 26 27 28 29 30 31 32 33 34 35 36 37 38 39 40 41 42 43 44 45 46 47 48 49 50
000
ASUS43 KTOP 100359
RWRKS

WEATHER ROUNDUP FOR KANSAS
NATIONAL WEATHER SERVICE GOODLAND KS
1000 PM CST TUE FEB 09 2016

NOTE:  "FAIR" INDICATES FEW OR NO CLOUDS BELOW 12,000 FEET WITH NO
SIGNIFICANT WEATHER AND/OR OBSTRUCTIONS TO VISIBILITY.

KSZ001>006-013>018-027>032-041>047-100500-
NORTHWEST KANSAS

CITY           SKY/WX    TMP DP  RH WIND       PRES   REMARKS
GOODLAND       PTCLDY    39  29  67 W17       30.21S WCI  30
HAYS           CLOUDY    28  16  59 S6        30.24S
HILL CITY      CLOUDY    32  25  75 S3        30.22S
RUSSELL        CLOUDY    28  20  71 S7        30.22F
$$

KSZ061>065-074>080-084>089-100500-
SOUTHWEST KANSAS

CITY           SKY/WX    TMP DP  RH WIND       PRES   REMARKS
DODGE CITY     PTCLDY    27  19  72 SE6       30.25S
ELKHART          N/A     41  25  53 W6          N/A
GARDEN CITY    CLEAR     33  27  78 W7        30.23F
GREAT BEND     CLEAR     27  14  59 S6        30.26F
LIBERAL        CLEAR     32  19  59 W7        30.28S
$$

KSZ066>073-081>083-090>101-100500-
SOUTHEAST KANSAS

CITY           SKY/WX    TMP DP  RH WIND       PRES   REMARKS
CHANUTE        CLEAR     22   9  57 W6        30.31S
COFFEYVILLE    CLEAR     25   8  48 NW7       30.33F
HUTCHINSON     PTCLDY    25  13  60 E6        30.27F
MEDICINE LODGE   N/A     31  19  61 CALM      30.29R
NEWTON         CLOUDY    25  10  54 N5        30.30F
PARSONS        CLEAR     20   9  62 NW6       30.32F
WICHITA INTL   CLOUDY    31  13  47 NE8       30.29F
WICHITA JABRA  CLOUDY    26  13  57 NE6       30.29F
WINFIELD       CLOUDY    29  15  56 NE6       30.33S
$$

KSZ007>012-019>026-033>040-048>060-102>105-100500-
NORTHEAST KANSAS

CITY           SKY/WX    TMP DP  RH WIND       PRES   REMARKS
CONCORDIA      CLEAR     22  14  71 SW6       30.25F
EMPORIA        CLEAR     19   9  65 W5        30.29F
LAWRENCE       CLEAR     18   9  68 NW6       30.29S
MANHATTAN      PTCLDY    21  12  68 SW5       30.28F
OLATHE IND     CLEAR     21   8  57 NW7       30.28S
OLATHE EXE     CLEAR     21   7  54 NW8       30.27R
SALINA         CLEAR     24  12  60 SE5       30.29F
TOPEKA BILLARD CLEAR     24   9  52 W5        30.29S
TOPEKA FORBES  CLEAR     21  10  62 W8        30.27F
$$




USA.gov is the U.S. government's official web portal to all federal, state and local government web resources and services.